Location: Brno
(49.2000°N, 16.6333°E)
Time: 18:25:56
(UTC+01:00)

ISS - Visible Passes

Search period start: 23 January 2019 00:00
Search period end: 02 February 2019 00:00
Orbit: 404 x 410 km, 51.6° (Epoch: 24 January)

Date Brightness Start Highest point End Pass type
(mag) Time Alt. Az. Time Alt. Az. Time Alt. Az.
23 Jan -2.1 18:39:09 10° SSW 18:41:05 24° S 18:41:05 24° S visible
24 Jan -1.9 17:48:32 10° S 17:50:52 18° SE 17:52:03 15° ESE visible
24 Jan -1.2 19:23:42 10° WSW 19:24:47 19° WSW 19:24:47 19° WSW visible
25 Jan -3.6 18:32:27 10° SW 18:35:41 53° SSE 18:35:41 53° SSE visible
26 Jan -2.8 17:41:22 10° SW 17:44:23 34° SSE 17:46:30 17° E visible
26 Jan -1.7 19:17:30 10° W 19:19:13 28° W 19:19:13 28° W visible
27 Jan -3.9 18:26:04 10° WSW 18:29:23 90° NNW 18:29:59 57° ENE visible
28 Jan -3.6 17:34:43 10° WSW 17:37:59 64° SSE 17:40:43 14° ENE visible
28 Jan -2.1 19:11:21 10° W 19:13:25 33° WNW 19:13:25 33° WNW visible
29 Jan -3.6 18:19:50 10° W 18:23:07 63° N 18:24:07 40° NE visible
29 Jan -0.3 19:56:37 10° WNW 19:56:49 11° WNW 19:56:49 11° WNW visible
30 Jan -3.8 17:28:20 10° WSW 17:31:39 79° NNW 17:34:47 11° ENE visible
30 Jan -2.5 19:05:08 10° WNW 19:07:29 38° NW 19:07:29 38° NW visible
31 Jan -3.5 18:13:37 10° W 18:16:52 54° N 18:18:09 31° ENE visible
31 Jan -0.6 19:50:18 10° WNW 19:50:51 14° WNW 19:50:51 14° WNW visible
01 Feb -3.5 17:22:04 10° W 17:25:20 59° N 17:28:37 10° ENE visible
01 Feb -3.1 18:58:49 10° WNW 19:01:31 51° NW 19:01:31 51° NW visible
